Location: Hawks Ness
(60.2333°N, 1.1667°W)
Time: 13:41:31
(UTC+00:00)

Cosmos 1726 - Pass Details

Date: 25 January 2020
Orbit: 483 x 500 km, 82.5° (Epoch: 24 February)

Event Time Altitude Azimuth Distance (km) Brightness Sun altitude
Rises 17:35:52 0° 333° (NNW) 2,566 5.9 -11.4°
Reaches altitude 10° 17:39:22 10° 297° (WNW) 1,678 5.5 -11.9°
Maximum altitude 17:40:26 11° 280° (W) 1,611 5.7 -12.0°
Drops below altitude 10° 17:41:30 10° 263° (W) 1,675 6.2 -12.1°
Sets 17:45:00 0° 227° (SW) 2,551 7.0 -12.5°
